Time,TemperatureF,DewpointF,PressureIn,WindDirection,WindDirectionDegrees,WindSpeedMPH,WindSpeedGustMPH,Humidity,HourlyPrecipIn,Conditions,Clouds,dailyrainin,SoftwareType,DateUTC
2013-11-28 00:13:00,25.4,14.0,30.13,WSW,240,1.0,8.0,61,0.00,,,0.02,weatherlink.com 1.10,2013-11-28 05:13:00,
2013-11-28 00:28:00,24.9,13.0,30.14,SW,232,1.0,7.0,62,0.00,,,0.02,weatherlink.com 1.10,2013-11-28 05:28:00,
2013-11-28 00:43:00,24.9,13.0,30.14,West,263,4.0,6.0,62,0.00,,,0.02,weatherlink.com 1.10,2013-11-28 05:43:00,
2013-11-28 00:58:00,24.9,14.0,30.15,SW,226,0.0,3.0,63,0.00,,,0.02,weatherlink.com 1.10,2013-11-28 05:58:00,
2013-11-28 01:13:00,24.7,14.0,30.15,SW,216,3.0,10.0,63,0.00,,,0.02,weatherlink.com 1.10,2013-11-28 06:13:00,
2013-11-28 01:28:00,25.2,14.0,30.16,SSW,200,1.0,7.0,62,0.00,,,0.02,weatherlink.com 1.10,2013-11-28 06:28:00,
2013-11-28 01:43:00,25.6,15.0,30.17,WNW,301,1.0,7.0,64,0.00,,,0.02,weatherlink.com 1.10,2013-11-28 06:43:00,
2013-11-28 01:58:00,25.5,15.0,30.18,West,267,0.0,8.0,64,0.00,,,0.02,weatherlink.com 1.10,2013-11-28 06:58:00,
2013-11-28 02:13:00,25.4,15.0,30.18,WNW,294,0.0,3.0,64,0.00,,,0.02,weatherlink.com 1.10,2013-11-28 07:13:00,
2013-11-28 02:28:00,24.9,16.0,30.18,WNW,294,1.0,2.0,68,0.00,,,0.02,weatherlink.com 1.10,2013-11-28 07:28:00,
2013-11-28 02:43:00,24.4,16.0,30.18,SW,222,2.0,4.0,69,0.00,,,0.02,weatherlink.com 1.10,2013-11-28 07:43:00,
2013-11-28 02:58:00,23.2,16.0,30.19,SW,230,0.0,1.0,74,0.00,,,0.02,weatherlink.com 1.10,2013-11-28 07:58:00,
2013-11-28 03:13:00,23.1,15.0,30.19,SSW,198,0.0,3.0,71,0.00,,,0.02,weatherlink.com 1.10,2013-11-28 08:13:00,
2013-11-28 03:28:00,22.8,15.0,30.20,SSW,198,0.0,1.0,71,0.00,,,0.02,weatherlink.com 1.10,2013-11-28 08:28:00,
2013-11-28 03:43:00,22.1,15.0,30.21,SSW,198,0.0,2.0,73,0.00,,,0.02,weatherlink.com 1.10,2013-11-28 08:43:00,
2013-11-28 03:58:00,21.4,15.0,30.22,SSW,198,0.0,0.0,75,0.00,,,0.02,weatherlink.com 1.10,2013-11-28 08:58:00,
2013-11-28 04:13:00,20.7,15.0,30.23,SSW,198,0.0,2.0,79,0.00,,,0.02,weatherlink.com 1.10,2013-11-28 09:13:00,
2013-11-28 04:28:00,20.0,14.0,30.24,SSW,198,0.0,2.0,78,0.00,,,0.02,weatherlink.com 1.10,2013-11-28 09:28:00,
2013-11-28 04:43:00,19.3,15.0,30.25,SSW,198,0.0,0.0,82,0.00,,,0.02,weatherlink.com 1.10,2013-11-28 09:43:00,
2013-11-28 04:58:00,19.3,14.0,30.25,SSW,198,0.0,1.0,81,0.00,,,0.02,weatherlink.com 1.10,2013-11-28 09:58:00,
2013-11-28 05:14:00,18.5,14.0,30.26,SSW,198,0.0,0.0,83,0.00,,,0.02,weatherlink.com 1.10,2013-11-28 10:14:00,
2013-11-28 05:29:00,18.6,15.0,30.27,SSW,198,0.0,0.0,84,0.00,,,0.00,weatherlink.com 1.10,2013-11-28 10:29:00,
2013-11-28 05:44:00,18.3,14.0,30.29,SSW,198,0.0,0.0,84,0.00,,,0.00,weatherlink.com 1.10,2013-11-28 10:44:00,
2013-11-28 05:59:00,17.7,14.0,30.29,SSW,198,0.0,1.0,85,0.00,,,0.00,weatherlink.com 1.10,2013-11-28 10:59:00,
2013-11-28 06:14:00,17.9,14.0,30.29,SSW,198,2.0,2.0,86,0.00,,,0.00,weatherlink.com 1.10,2013-11-28 11:14:00,
2013-11-28 06:29:00,18.0,15.0,30.30,SSW,198,0.0,0.0,86,0.00,,,0.00,weatherlink.com 1.10,2013-11-28 11:29:00,
2013-11-28 06:44:00,18.1,15.0,30.32,SSW,198,0.0,1.0,87,0.00,,,0.00,weatherlink.com 1.10,2013-11-28 11:44:00,
2013-11-28 06:59:00,18.0,15.0,30.32,SSW,198,0.0,1.0,88,0.00,,,0.00,weatherlink.com 1.10,2013-11-28 11:59:00,
2013-11-28 07:14:00,17.3,14.0,30.34,SSW,198,0.0,1.0,87,0.00,,,0.00,weatherlink.com 1.10,2013-11-28 12:14:00,
2013-11-28 07:29:00,17.6,15.0,30.34,SSW,198,0.0,1.0,88,0.00,,,0.00,weatherlink.com 1.10,2013-11-28 12:29:00,
2013-11-28 07:44:00,18.0,15.0,30.35,SSW,198,0.0,1.0,88,0.00,,,0.00,weatherlink.com 1.10,2013-11-28 12:44:00,
2013-11-28 07:59:00,18.6,16.0,30.37,SSW,198,0.0,1.0,88,0.00,,,0.00,weatherlink.com 1.10,2013-11-28 12:59:00,
2013-11-28 08:14:00,19.8,17.0,30.38,South,182,2.0,4.0,89,0.00,,,0.00,weatherlink.com 1.10,2013-11-28 13:14:00,
2013-11-28 08:29:00,21.3,18.0,30.38,South,183,3.0,6.0,86,0.00,,,0.00,weatherlink.com 1.10,2013-11-28 13:29:00,
2013-11-28 08:44:00,22.8,19.0,30.39,South,191,4.0,6.0,84,0.00,,,0.00,weatherlink.com 1.10,2013-11-28 13:44:00,
2013-11-28 08:59:00,24.9,20.0,30.39,South,186,3.0,3.0,82,0.00,,,0.00,weatherlink.com 1.10,2013-11-28 13:59:00,
2013-11-28 09:14:00,27.1,20.0,30.39,South,191,0.0,4.0,76,0.00,,,0.00,weatherlink.com 1.10,2013-11-28 14:14:00,
2013-11-28 09:29:00,28.6,21.0,30.40,South,189,4.0,6.0,72,0.00,,,0.00,weatherlink.com 1.10,2013-11-28 14:29:00,
2013-11-28 09:44:00,30.1,20.0,30.41,South,183,4.0,7.0,66,0.00,,,0.00,weatherlink.com 1.10,2013-11-28 14:44:00,
2013-11-28 10:00:00,31.1,20.0,30.41,SW,234,1.0,8.0,63,0.00,,,0.00,weatherlink.com 1.10,2013-11-28 15:00:00,
2013-11-28 10:15:00,32.1,20.0,30.42,SW,217,6.0,8.0,62,0.00,,,0.00,weatherlink.com 1.10,2013-11-28 15:15:00,
2013-11-28 10:30:00,32.5,21.0,30.42,SW,234,5.0,8.0,62,0.00,,,0.00,weatherlink.com 1.10,2013-11-28 15:30:00,
2013-11-28 10:45:00,32.6,20.0,30.41,SW,234,5.0,9.0,60,0.00,,,0.00,weatherlink.com 1.10,2013-11-28 15:45:00,
2013-11-28 11:00:00,33.6,20.0,30.41,WNW,302,1.0,8.0,59,0.00,,,0.00,weatherlink.com 1.10,2013-11-28 16:00:00,
2013-11-28 11:15:00,34.2,19.0,30.41,WSW,238,2.0,11.0,55,0.00,,,0.00,weatherlink.com 1.10,2013-11-28 16:15:00,
2013-11-28 11:30:00,34.8,22.0,30.40,NW,315,1.0,3.0,59,0.00,,,0.00,weatherlink.com 1.10,2013-11-28 16:30:00,
2013-11-28 11:45:00,35.9,23.0,30.40,NNW,344,0.0,4.0,59,0.00,,,0.00,weatherlink.com 1.10,2013-11-28 16:45:00,
2013-11-28 12:00:00,36.4,21.0,30.40,SE,140,0.0,5.0,55,0.00,,,0.00,weatherlink.com 1.10,2013-11-28 17:00:00,
2013-11-28 12:15:00,38.0,24.0,30.40,NE,55,4.0,7.0,58,0.00,,,0.00,weatherlink.com 1.10,2013-11-28 17:15:00,
2013-11-28 12:30:00,39.0,24.0,30.39,NE,47,2.0,4.0,55,0.00,,,0.00,weatherlink.com 1.10,2013-11-28 17:30:00,
2013-11-28 12:45:00,39.0,21.0,30.39,SE,140,0.0,3.0,49,0.00,,,0.00,weatherlink.com 1.10,2013-11-28 17:45:00,
2013-11-28 13:00:00,38.5,23.0,30.39,SSE,164,2.0,5.0,53,0.00,,,0.00,weatherlink.com 1.10,2013-11-28 18:00:00,
2013-11-28 13:15:00,38.9,20.0,30.39,ESE,109,0.0,4.0,47,0.00,,,0.00,weatherlink.com 1.10,2013-11-28 18:15:00,
2013-11-28 13:30:00,40.3,22.0,30.39,East,97,0.0,3.0,49,0.00,,,0.00,weatherlink.com 1.10,2013-11-28 18:30:00,
2013-11-28 13:45:00,40.6,20.0,30.38,SE,133,0.0,2.0,44,0.00,,,0.00,weatherlink.com 1.10,2013-11-28 18:45:00,
2013-11-28 14:00:00,38.6,20.0,30.38,WSW,241,2.0,7.0,48,0.00,,,0.00,weatherlink.com 1.10,2013-11-28 19:00:00,
2013-11-28 14:15:00,37.8,19.0,30.38,South,173,2.0,10.0,47,0.00,,,0.00,weatherlink.com 1.10,2013-11-28 19:15:00,
2013-11-28 14:30:00,37.6,20.0,30.38,SW,225,4.0,8.0,49,0.00,,,0.00,weatherlink.com 1.10,2013-11-28 19:30:00,
2013-11-28 14:45:00,38.0,21.0,30.38,SSW,205,0.0,5.0,51,0.00,,,0.00,weatherlink.com 1.10,2013-11-28 19:45:00,
2013-11-28 15:00:00,38.6,20.0,30.38,SSW,204,4.0,5.0,48,0.00,,,0.00,weatherlink.com 1.10,2013-11-28 20:00:00,
2013-11-28 15:15:00,38.1,19.0,30.38,South,186,0.0,5.0,46,0.00,,,0.00,weatherlink.com 1.10,2013-11-28 20:15:00,
2013-11-28 15:30:00,38.2,18.0,30.38,South,184,2.0,5.0,44,0.00,,,0.00,weatherlink.com 1.10,2013-11-28 20:30:00,
2013-11-28 15:45:00,38.0,18.0,30.38,South,185,2.0,5.0,44,0.00,,,0.00,weatherlink.com 1.10,2013-11-28 20:45:00,
2013-11-28 16:00:00,38.9,18.0,30.39,South,185,0.0,2.0,43,0.00,,,0.00,weatherlink.com 1.10,2013-11-28 21:00:00,
2013-11-28 16:15:00,38.9,18.0,30.39,South,185,0.0,3.0,43,0.00,,,0.00,weatherlink.com 1.10,2013-11-28 21:15:00,
2013-11-28 16:30:00,38.6,19.0,30.39,South,185,1.0,2.0,45,0.00,,,0.00,weatherlink.com 1.10,2013-11-28 21:30:00,
2013-11-28 16:45:00,36.9,19.0,30.39,South,185,0.0,1.0,48,0.00,,,0.00,weatherlink.com 1.10,2013-11-28 21:45:00,
2013-11-28 17:00:00,35.8,19.0,30.40,South,185,0.0,0.0,50,0.00,,,0.00,weatherlink.com 1.10,2013-11-28 22:00:00,
2013-11-28 17:15:00,34.6,24.0,30.40,South,185,0.0,0.0,66,0.00,,,0.00,weatherlink.com 1.10,2013-11-28 22:15:00,
2013-11-28 17:30:00,32.8,22.0,30.41,South,185,0.0,1.0,65,0.00,,,0.00,weatherlink.com 1.10,2013-11-28 22:30:00,
2013-11-28 17:45:00,30.9,23.0,30.41,South,185,0.0,1.0,73,0.00,,,0.00,weatherlink.com 1.10,2013-11-28 22:45:00,
2013-11-28 18:00:00,28.8,22.0,30.41,South,185,0.0,0.0,77,0.00,,,0.00,weatherlink.com 1.10,2013-11-28 23:00:00,
2013-11-28 18:15:00,27.8,22.0,30.41,South,185,0.0,0.0,80,0.00,,,0.00,weatherlink.com 1.10,2013-11-28 23:15:00,
2013-11-28 18:30:00,27.3,23.0,30.42,South,185,0.0,0.0,83,0.00,,,0.00,weatherlink.com 1.10,2013-11-28 23:30:00,
2013-11-28 18:45:00,26.7,22.0,30.42,South,185,0.0,0.0,83,0.00,,,0.00,weatherlink.com 1.10,2013-11-28 23:45:00,
2013-11-28 19:00:00,26.1,22.0,30.42,South,185,0.0,1.0,85,0.00,,,0.00,weatherlink.com 1.10,2013-11-29 00:00:00,
2013-11-28 19:15:00,25.3,21.0,30.43,South,185,0.0,1.0,85,0.00,,,0.00,weatherlink.com 1.10,2013-11-29 00:15:00,
2013-11-28 19:30:00,25.0,21.0,30.43,South,185,0.0,1.0,85,0.00,,,0.00,weatherlink.com 1.10,2013-11-29 00:30:00,
2013-11-28 19:45:00,25.1,22.0,30.43,South,185,0.0,1.0,86,0.00,,,0.00,weatherlink.com 1.10,2013-11-29 00:45:00,
2013-11-28 20:00:00,24.7,21.0,30.43,South,185,0.0,1.0,86,0.00,,,0.00,weatherlink.com 1.10,2013-11-29 01:00:00,
2013-11-28 20:15:00,24.2,21.0,30.44,South,185,0.0,0.0,86,0.00,,,0.00,weatherlink.com 1.10,2013-11-29 01:15:00,
2013-11-28 20:30:00,23.9,21.0,30.44,South,185,0.0,0.0,87,0.00,,,0.00,weatherlink.com 1.10,2013-11-29 01:30:00,
2013-11-28 20:45:00,23.7,21.0,30.45,South,185,0.0,1.0,89,0.00,,,0.00,weatherlink.com 1.10,2013-11-29 01:45:00,
2013-11-28 21:00:00,23.9,21.0,30.45,South,185,0.0,0.0,89,0.00,,,0.00,weatherlink.com 1.10,2013-11-29 02:00:00,
2013-11-28 21:16:00,24.1,22.0,30.45,South,185,0.0,1.0,90,0.00,,,0.00,weatherlink.com 1.10,2013-11-29 02:16:00,
2013-11-28 21:31:00,24.2,22.0,30.46,South,185,0.0,1.0,90,0.00,,,0.00,weatherlink.com 1.10,2013-11-29 02:31:00,
2013-11-28 21:46:00,24.6,22.0,30.46,South,185,0.0,0.0,91,0.00,,,0.00,weatherlink.com 1.10,2013-11-29 02:46:00,
2013-11-28 22:01:00,24.4,22.0,30.46,South,185,0.0,1.0,89,0.00,,,0.00,weatherlink.com 1.10,2013-11-29 03:01:00,
2013-11-28 22:16:00,24.3,22.0,30.47,South,185,0.0,0.0,90,0.00,,,0.00,weatherlink.com 1.10,2013-11-29 03:16:00,
2013-11-28 22:31:00,24.5,22.0,30.47,South,185,0.0,1.0,90,0.00,,,0.00,weatherlink.com 1.10,2013-11-29 03:31:00,
2013-11-28 22:46:00,25.1,23.0,30.47,South,185,0.0,0.0,90,0.00,,,0.00,weatherlink.com 1.10,2013-11-29 03:46:00,
2013-11-28 23:01:00,25.3,23.0,30.47,South,185,0.0,0.0,90,0.00,,,0.00,weatherlink.com 1.10,2013-11-29 04:01:00,
2013-11-28 23:16:00,25.8,24.0,30.47,South,185,0.0,1.0,91,0.00,,,0.00,weatherlink.com 1.10,2013-11-29 04:16:00,
2013-11-28 23:31:00,26.1,24.0,30.47,South,185,0.0,0.0,91,0.00,,,0.00,weatherlink.com 1.10,2013-11-29 04:31:00,
2013-11-28 23:46:00,26.3,24.0,30.47,South,185,0.0,0.0,91,0.00,,,0.00,weatherlink.com 1.10,2013-11-29 04:46:00,